Location: Boone Canyon
(38.3180°N, 119.2504°W)
Time: 18:18:26
(UTC+00:00)

METEOR-M - Pass Details

Date: 18 September 2020
Orbit: 816 x 819 km, 98.5° (Epoch: 20 October)

Event Time Altitude Azimuth Distance (km) Brightness Sun altitude
Rises 13:04:22 0° 9° (N) 3,357 7.6 -8.1°
Reaches altitude 10° 13:06:44 10° 6° (N) 2,420 6.8 -7.7°
Maximum altitude 13:12:01 63° 287° (WNW) 912 4.2 -6.7°
Drops below altitude 10° 13:17:16 10° 207° (SSW) 2,403 6.3 -5.6°
Sets 13:19:37 0° 204° (SSW) 3,331 7.0 -5.2°
